Regional Weather Roundup
Issued by NWS

Home | Current Version | Previous Version | Graphics & Text | Print | Product List | Glossary Off
Versions: 1 2 3 4 5 6 7 8 9 10 11 12 13 14 15 16 17 18 19 20 21 22 23 24 25 26 27 28 29 30 31 32 33 34 35 36 37 38 39 40 41 42 43 44 45 46 47 48 49 50

766
ASUS43 KLSX 231410
RWRMO

WEATHER SUMMARY FOR MISSOURI
NATIONAL WEATHER SERVICE SPRINGFIELD MO
900 AM CDT TUE MAY 23 2017

NOTE: "FAIR" INDICATES FEW OR NO CLOUDS BELOW 12,000 FEET WITH NO
       SIGNIFICANT WEATHER AND/OR OBSTRUCTIONS TO VISIBILITY.
       CURRENT SKY AND/OR WEATHER CONDITIONS ARE NOT AVAILABLE FOR
       CHILLICOTHE AND FARMINGTON.

MOZ001>031-035>038-043-044-053-054-231500-
...NORTHERN AND WESTERN MISSOURI...

CITY           SKY/WX    TMP DP  RH WIND       PRES   REMARKS
KANSAS CTY INT CLOUDY    56  51  84 N12       29.90R
KANSAS C DTWN  CLOUDY    57  51  80 VRB7      29.89R
LEE`S SUMMIT   LGT RAIN  54  52  93 N13       29.89S
ST JOSEPH      SUNNY     57  50  77 NW7       29.91R
CHILLICOTHE      N/A     55  52  89 VRB5      29.88R
KIRKSVILLE     CLOUDY    56  53  90 NW7       29.84R

$$
MOZ066>068-077>081-088>096-101>105-231500-
...SOUTHWEST MISSOURI...

CITY           SKY/WX    TMP DP  RH WIND       PRES   REMARKS
SPRINGFIELD    CLOUDY    62  58  86 NW8       29.84S
JOPLIN         CLOUDY    63  58  83 N12       29.87S
BRANSON        PTSUNNY   63  59  88 W3        29.85S

$$
MOZ032>034-039>042-045>050-055>058-069>072-231500-
...CENTRAL MISSOURI...

CITY           SKY/WX    TMP DP  RH WIND       PRES   REMARKS
COLUMBIA       CLOUDY    59  57  93 NW5       29.83R
JEFFERSON CITY CLOUDY    61  56  83 NW8       29.82S
ROLLA          LGT RAIN  58  58 100 SW5       29.80F
SEDALIA        CLOUDY    58  58 100 NW6       29.86S
WHITEMAN AFB   CLOUDY    58  58 100 NW8       29.84F FOG
WARRENSBURG    CLOUDY    55  55 100 NW5       29.86S FOG
OSAGE BEACH    CLOUDY    60  58  92 VRB6      29.83S

$$
MOZ051-052-059>065-231500-
...EAST CENTRAL MISSOURI...

CITY           SKY/WX    TMP DP  RH WIND       PRES   REMARKS
ST LOUIS INTL  PTSUNNY   68  54  60 CALM      29.80F
SPIRIT OF STL  CLOUDY    66  56  70 SW3       29.79F
ST CHARLES     CLOUDY    63  57  81 NE6       29.80F

$$
MOZ072>076-082>087-097>100-106>115-231500-
...SOUTH CENTRAL AND SOUTHEAST MISSOURI...

CITY           SKY/WX    TMP DP  RH WIND       PRES   REMARKS
CAPE GIRARDEAU PTSUNNY   64  58  80 CALM      29.80F
FARMINGTON     CLOUDY    63  55  75 CALM      29.82S
POPLAR BLUFF   CLOUDY    64  59  83 CALM      29.80F
WEST PLAINS    CLOUDY    60  55  83 W5        29.83S

$$




USA.gov is the U.S. government's official web portal to all federal, state and local government web resources and services.